Weather History for KTKI - January, 2014

Change the Weather History Date:

Friday, January 3, 2014

  Actual Average (KADS) Record (KADS)
Temperature  
Mean Temperature 34 °F -  
Max Temperature 48 °F 54 °F 82 °F (2006)
Min Temperature 19 °F 38 °F 21 °F (1999)
Degree Days  
Heating Degree Days 32    
Moisture  
Dew Point 21 °F    
Average Humidity 60    
Maximum Humidity 88    
Minimum Humidity 37    
Precipitation  
Precipitation 0.00 in - - ()
Sea Level Pressure  
Sea Level Pressure 30.33 in    
Wind  
Wind Speed 7 mph (SSE)    
Max Wind Speed 20 mph    
Max Gust Speed 26 mph    
Visibility 10 miles    
Events      
Averages and records for this station are not official NWS values.
T = Trace of Precipitation, MM = Missing Value Source: NWS Daily Summary

Daily Weather History Graph

Daily Weather History Graph

Search for Another Location

Airport or City:

Trip Planner

Search our weather history database for the weather conditions in past years. The results will help you decide how hot, cold, wet, or windy it might be!

Date:

Astronomy

Jan. 03, 2014 Rise Set
Actual Time 7:30 AM CST 5:31 PM CST
Civil Twilight 7:02 AM CST 5:59 PM CST
Nautical Twilight 6:32 AM CST 6:29 PM CST
Astronomical Twilight 6:01 AM CST 7:00 PM CST
Moon 9:05 AM CST (1/3) 8:32 PM CST (1/3)
Length of Visible Light 10h 56m
Length of Day
10h 01m
Waxing Crescent, 8% of the Moon is Illuminated
Jan 3
Waxing Crescent
Jan 7
First Quarter
Jan 15
Full
Jan 23
Last Quarter
Jan 30
New

Hourly Weather History & Observations

Time (CST) Temp. Windchill Dew Point Humidity Pressure Visibility Wind Dir Wind Speed Gust Speed Precip Events Conditions
12:53 AM 23.0 °F - 17.1 °F 78% 30.51 in 10.0 mi Calm Calm - N/A   Clear
1:53 AM 21.9 °F - 17.1 °F 82% 30.51 in 10.0 mi Calm Calm - N/A   Clear
2:53 AM 23.0 °F - 18.0 °F 81% 30.51 in 10.0 mi Calm Calm - N/A   Clear
3:53 AM 19.9 °F - 16.0 °F 85% 30.50 in 10.0 mi Calm Calm - N/A   Clear
4:53 AM 19.9 °F - 15.1 °F 81% 30.48 in 10.0 mi Calm Calm - N/A   Clear
5:53 AM 19.0 °F - 15.1 °F 85% 30.48 in 10.0 mi Calm Calm - N/A   Clear
6:53 AM 21.0 °F - 16.0 °F 81% 30.48 in 10.0 mi Calm Calm - N/A   Clear
7:53 AM 19.0 °F 11.1 °F 16.0 °F 88% 30.48 in 10.0 mi SE 5.8 mph - N/A   Clear
8:53 AM 30.0 °F 23.2 °F 21.9 °F 72% 30.48 in 10.0 mi SE 6.9 mph - N/A   Clear
9:53 AM 35.1 °F 25.5 °F 23.0 °F 61% 30.47 in 10.0 mi SSE 15.0 mph - N/A   Clear
10:53 AM 37.9 °F 28.5 °F 21.0 °F 51% 30.45 in 10.0 mi SSE 17.3 mph - N/A   Clear
11:53 AM 41.0 °F 32.8 °F 23.0 °F 49% 30.40 in 10.0 mi SSE 16.1 mph - N/A   Clear
12:53 PM 44.1 °F 36.5 °F 24.1 °F 45% 30.34 in 10.0 mi South 17.3 mph - N/A   Clear
1:53 PM 46.9 °F - 23.0 °F 39% 30.30 in 10.0 mi SSE 18.4 mph - N/A   Clear
2:53 PM 48.0 °F - 23.0 °F 37% 30.26 in 10.0 mi South 19.6 mph - N/A   Clear
3:53 PM 48.0 °F - 23.0 °F 37% 30.22 in 10.0 mi SSE 19.6 mph 26.5 mph N/A   Clear
4:53 PM 46.9 °F - 25.0 °F 42% 30.19 in 10.0 mi SSE 17.3 mph 23.0 mph N/A   Clear
5:53 PM 45.0 °F 38.9 °F 24.1 °F 44% 30.17 in 10.0 mi SSE 12.7 mph - N/A   Clear
6:53 PM 42.1 °F 35.2 °F 25.0 °F 51% 30.17 in 10.0 mi SSE 12.7 mph - N/A   Clear
7:53 PM 41.0 °F 34.3 °F 25.0 °F 53% 30.16 in 10.0 mi SSE 11.5 mph - N/A   Clear
8:53 PM 41.0 °F 33.9 °F 25.0 °F 53% 30.13 in 10.0 mi South 12.7 mph - N/A   Clear
9:53 PM 41.0 °F 33.1 °F 25.0 °F 53% 30.11 in 10.0 mi South 15.0 mph - N/A   Clear
10:53 PM 41.0 °F 33.1 °F 24.1 °F 51% 30.09 in 10.0 mi South 15.0 mph - N/A   Clear
11:53 PM 41.0 °F 33.9 °F 24.1 °F 51% 30.07 in 10.0 mi South 12.7 mph - N/A   Clear